When you browse on this site, cookies collect data to enhance your experience and personalize the content and advertising you see.
Visit our Privacy Policy to learn more. By continuing to use the site, you agree to this use of cookies and data.
  • In Hungary
  • List of Countries
  • For 7 days
  • Water Temperature
  • Satellite Maps
  • Weather Map
  • News
  • Weather Widgets
  • user-avatar
    Login

    Hourly Weather Lipinki

    Today, 18 January, Friday

    Time Temperature Precipitation Wind Pressure Humidity
    00:00 +2°C° 0 mm 7 mps 745 mmHg 76%
    01:00 0°C° 0 mm 7 mps 745 mmHg 77%
    02:00 0°C° 0.1 mm 7 mps 746 mmHg 76%
    03:00 0°C° 0.1 mm 7 mps 746 mmHg 76%
    04:00 -1°C° 0.1 mm 7 mps 747 mmHg 76%
    05:00 -2°C° 0.2 mm 6 mps 748 mmHg 76%
    06:00 -3°C° 0.2 mm 6 mps 749 mmHg 75%
    07:00 -3°C° 0.2 mm 6 mps 750 mmHg 75%
    08:00 -3°C° 0 mm 6 mps 751 mmHg 74%
    09:00 -3°C° 0 mm 6 mps 752 mmHg 73%
    10:00 -3°C° 0 mm 6 mps 753 mmHg 72%
    11:00 -2°C° 0 mm 5 mps 754 mmHg 69%
    12:00 -2°C° 0 mm 5 mps 755 mmHg 67%
    13:00 -1°C° 0 mm 5 mps 755 mmHg 64%
    14:00 -2°C° 0 mm 4 mps 756 mmHg 66%
    15:00 -2°C° 0 mm 4 mps 756 mmHg 68%
    16:00 -1°C° 0 mm 3 mps 756 mmHg 69%
    17:00 -2°C° 0 mm 3 mps 757 mmHg 73%
    18:00 -2°C° 0 mm 3 mps 757 mmHg 76%
    19:00 -2°C° 0 mm 3 mps 757 mmHg 79%
    20:00 -2°C° 0 mm 3 mps 758 mmHg 76%
    21:00 -3°C° 0 mm 4 mps 758 mmHg 74%
    22:00 -2°C° 0 mm 4 mps 758 mmHg 71%
    23:00 -3°C° 0 mm 4 mps 758 mmHg 73%

    Tomorrow, 19 January, Saturday

    Time Temperature Precipitation Wind Pressure Humidity
    00:00 -2°C° 0 mm 3 mps 758 mmHg 74%
    01:00 -2°C° 0 mm 3 mps 759 mmHg 76%
    02:00 -2°C° 0 mm 3 mps 759 mmHg 78%
    03:00 -2°C° 0 mm 3 mps 759 mmHg 80%
    04:00 -4°C° 0 mm 3 mps 759 mmHg 81%
    05:00 -3°C° 0 mm 2 mps 759 mmHg 82%
    06:00 -3°C° 0 mm 2 mps 759 mmHg 83%
    07:00 -3°C° 0 mm 2 mps 759 mmHg 84%
    08:00 -2°C° 0 mm 2 mps 759 mmHg 81%
    09:00 0°C° 0 mm 1 mps 759 mmHg 78%
    10:00 +1°C° 0 mm 1 mps 760 mmHg 75%
    11:00 +2°C° 0 mm 1 mps 759 mmHg 70%
    12:00 +2°C° 0 mm 1 mps 759 mmHg 66%
    13:00 +3°C° 0 mm 1 mps 759 mmHg 62%
    14:00 +2°C° 0 mm 1 mps 758 mmHg 65%
    15:00 +2°C° 0 mm 1 mps 758 mmHg 68%
    16:00 +1°C° 0 mm 1 mps 758 mmHg 71%
    17:00 +1°C° 0 mm 1 mps 758 mmHg 73%
    18:00 -2°C° 0 mm 2 mps 758 mmHg 75%
    19:00 -2°C° 0 mm 2 mps 758 mmHg 77%
    20:00 -2°C° 0 mm 2 mps 758 mmHg 76%
    21:00 -2°C° 0 mm 2 mps 758 mmHg 75%
    22:00 -2°C° 0 mm 2 mps 758 mmHg 75%
    23:00 -3°C° 0 mm 2 mps 757 mmHg 73%

    Day after tomorrow, 20 January, Sunday

    Time Temperature Precipitation Wind Pressure Humidity
    00:00 -3°C° 0 mm 2 mps 757 mmHg 71%
    01:00 -3°C° 0 mm 2 mps 757 mmHg 68%
    02:00 -3°C° 0 mm 2 mps 757 mmHg 68%
    03:00 -1°C° 0 mm 1 mps 756 mmHg 67%
    04:00 -1°C° 0 mm 1 mps 756 mmHg 66%
    05:00 -1°C° 0 mm 1 mps 756 mmHg 66%
    06:00 -2°C° 0 mm 1 mps 756 mmHg 66%
    07:00 -2°C° 0 mm 1 mps 756 mmHg 66%
    08:00 -1°C° 0 mm 1 mps 756 mmHg 63%
    09:00 -1°C° 0 mm 1 mps 757 mmHg 61%
    10:00 0°C° 0 mm 1 mps 757 mmHg 59%
    11:00 +1°C° 0 mm 1 mps 757 mmHg 56%
    12:00 +1°C° 0 mm 1 mps 757 mmHg 54%
    13:00 +1°C° 0 mm 0 mps 757 mmHg 52%
    14:00 +1°C° 0 mm 1 mps 757 mmHg 55%
    15:00 +1°C° 0 mm 1 mps 757 mmHg 58%
    16:00 0°C° 0 mm 1 mps 757 mmHg 62%
    17:00 0°C° 0 mm 1 mps 757 mmHg 63%
    18:00 -1°C° 0 mm 1 mps 758 mmHg 65%
    19:00 -1°C° 0 mm 1 mps 758 mmHg 67%
    20:00 -1°C° 0 mm 1 mps 758 mmHg 67%
    21:00 -2°C° 0 mm 0 mps 759 mmHg 68%
    22:00 -2°C° 0 mm 0 mps 759 mmHg 68%
    23:00 -2°C° 0 mm 0 mps 760 mmHg 68%

    21 January, Monday

    Time Temperature Precipitation Wind Pressure Humidity
    00:00 -2°C° 0 mm 1 mps 760 mmHg 69%
    01:00 -2°C° 0 mm 1 mps 760 mmHg 69%
    02:00 -2°C° 0 mm 1 mps 760 mmHg 70%
    03:00 -2°C° 0 mm 1 mps 760 mmHg 71%
    04:00 -2°C° 0 mm 1 mps 760 mmHg 72%
    05:00 -2°C° 0 mm 1 mps 761 mmHg 73%
    06:00 -2°C° 0 mm 1 mps 761 mmHg 74%
    07:00 -2°C° 0 mm 1 mps 761 mmHg 75%
    08:00 -2°C° 0 mm 1 mps 761 mmHg 72%
    09:00 -1°C° 0 mm 1 mps 761 mmHg 69%
    10:00 0°C° 0 mm 1 mps 762 mmHg 66%
    11:00 0°C° 0 mm 1 mps 761 mmHg 63%
    12:00 +1°C° 0 mm 1 mps 761 mmHg 59%
    13:00 +2°C° 0 mm 1 mps 761 mmHg 56%
    14:00 +1°C° 0 mm 1 mps 761 mmHg 58%
    15:00 +1°C° 0 mm 1 mps 761 mmHg 60%
    16:00 0°C° 0 mm 1 mps 760 mmHg 62%
    17:00 0°C° 0 mm 1 mps 760 mmHg 62%
    18:00 -3°C° 0 mm 2 mps 760 mmHg 63%
    19:00 -3°C° 0 mm 2 mps 760 mmHg 63%
    20:00 -3°C° 0 mm 2 mps 760 mmHg 62%
    21:00 -3°C° 0 mm 2 mps 760 mmHg 61%
    22:00 -3°C° 0 mm 2 mps 759 mmHg 60%
    23:00 -3°C° 0 mm 2 mps 759 mmHg 62%

    22 January, Tuesday

    Time Temperature Precipitation Wind Pressure Humidity
    00:00 -3°C° 0 mm 2 mps 759 mmHg 63%
    01:00 -3°C° 0 mm 2 mps 758 mmHg 65%
    02:00 -3°C° 0 mm 2 mps 758 mmHg 64%
    03:00 -4°C° 0 mm 2 mps 757 mmHg 64%
    04:00 -4°C° 0 mm 2 mps 756 mmHg 64%
    05:00 -4°C° 0 mm 2 mps 756 mmHg 64%
    06:00 -4°C° 0 mm 2 mps 756 mmHg 65%
    07:00 -4°C° 0 mm 2 mps 756 mmHg 65%
    08:00 -4°C° 0 mm 2 mps 755 mmHg 62%
    09:00 -3°C° 0 mm 2 mps 755 mmHg 60%
    10:00 -2°C° 0 mm 2 mps 755 mmHg 57%
    11:00 -2°C° 0 mm 2 mps 755 mmHg 54%
    12:00 -1°C° 0 mm 2 mps 754 mmHg 52%
    13:00 +1°C° 0 mm 2 mps 754 mmHg 49%
    14:00 -1°C° 0 mm 2 mps 753 mmHg 51%
    15:00 -1°C° 0 mm 2 mps 753 mmHg 53%
    16:00 -2°C° 0 mm 2 mps 752 mmHg 56%
    17:00 -2°C° 0 mm 3 mps 752 mmHg 56%
    18:00 -2°C° 0 mm 3 mps 752 mmHg 56%
    19:00 -4°C° 0 mm 3 mps 752 mmHg 56%
    20:00 -4°C° 0 mm 3 mps 751 mmHg 59%
    21:00 -4°C° 0 mm 3 mps 751 mmHg 62%
    22:00 -4°C° 0 mm 3 mps 751 mmHg 64%
    23:00 -4°C° 0 mm 4 mps 751 mmHg 66%

    23 January, Wednesday

    Time Temperature Precipitation Wind Pressure Humidity
    00:00 -4°C° 0 mm 4 mps 750 mmHg 68%
    01:00 -4°C° 0 mm 4 mps 750 mmHg 70%
    02:00 -5°C° 0 mm 4 mps 750 mmHg 68%
    03:00 -5°C° 0 mm 4 mps 749 mmHg 66%
    04:00 -5°C° 0 mm 4 mps 749 mmHg 64%
    05:00 -5°C° 0 mm 4 mps 749 mmHg 67%
    06:00 -5°C° 0 mm 4 mps 748 mmHg 70%
    07:00 -5°C° 0 mm 4 mps 748 mmHg 74%
    08:00 -6°C° 0 mm 5 mps 748 mmHg 71%
    09:00 -5°C° 0 mm 5 mps 748 mmHg 69%
    10:00 -5°C° 0 mm 5 mps 749 mmHg 66%
    11:00 -4°C° 0 mm 5 mps 748 mmHg 63%
    12:00 -4°C° 0 mm 5 mps 748 mmHg 59%
    13:00 -2°C° 0 mm 5 mps 748 mmHg 56%
    14:00 -2°C° 0 mm 5 mps 748 mmHg 57%
    15:00 -3°C° 0 mm 4 mps 748 mmHg 59%
    16:00 -3°C° 0 mm 4 mps 748 mmHg 60%
    17:00 -3°C° 0 mm 4 mps 748 mmHg 62%
    18:00 -4°C° 0 mm 4 mps 748 mmHg 64%
    19:00 -4°C° 0 mm 4 mps 748 mmHg 66%
    20:00 -4°C° 0 mm 4 mps 749 mmHg 68%
    21:00 -4°C° 0 mm 4 mps 749 mmHg 70%
    22:00 -5°C° 0 mm 4 mps 749 mmHg 72%
    23:00 -5°C° 0 mm 4 mps 749 mmHg 74%
    Show more